Regional Weather Roundup
Issued by NWS

Home | Current Version | Previous Version | Graphics & Text | Print | Product List | Glossary On
Versions: 1 2 3 4 5 6 7 8 9 10 11 12 13 14 15 16 17 18 19 20 21 22 23 24 25 26 27 28 29 30 31 32 33 34 35 36 37 38 39 40 41 42 43 44 45 46 47 48 49 50
000
ASUS43 KFSD 030102
RWRSD

WEATHER ROUNDUP FOR SOUTH DAKOTA
NATIONAL WEATHER SERVICE SIOUX FALLS SD
800 PM CDT SAT MAY 02 2015

NOTE: "FAIR" INDICATES FEW OR NO CLOUDS BELOW 12,000 FEET WITH NO
SIGNIFICANT WEATHER AND/OR OBSTRUCTIONS TO VISIBILITY.


SDZ001>005-009-010-012>017-030200-
NORTHWEST AND NORTH CENTRAL SOUTH DAKOTA

CITY           SKY/WX    TMP DP  RH WIND       PRES   REMARKS
BUFFALO          N/A     73  31  21 SW8       29.65F
FAITH            N/A     77  23  13 N16       29.68S
MOBRIDGE       MOCLDY    79  32  18 NW13      29.60R
$$

SDZ012>016-024>037-041>051-057-063-072>074-030200-
SOUTHWEST AND SOUTH CENTRAL SOUTH DAKOTA

CITY           SKY/WX    TMP DP  RH WIND       PRES   REMARKS
RAPID CTY ARPT CLOUDY    74  32  21 N12       29.72S
PIERRE         MOCLDY    77  42  28 S9G18     29.60S
CUSTER         MOCLDY    68  22  17 NE6       29.85S
ELLSWORTH AFB  CLOUDY    74  34  23 N9        29.72S
PHILIP         MOCLDY    80  33  18 N13       29.62S
PINE RIDGE     PTCLDY    77  29  17 NW9       29.72R
WINNER         FAIR      81  45  28 S8        29.65F
$$

SDZ004>011-016>023-039-040-030200-
NORTHEAST SOUTH DAKOTA

CITY           SKY/WX    TMP DP  RH WIND       PRES   REMARKS
ABERDEEN       PTCLDY    81  38  21 S17       29.58F
WATERTOWN      PTCLDY    76  40  27 S15       29.67F
BROOKINGS      CLEAR     75  43  31 S12       29.70F
SISSETON         N/A     78  37  22 SW14      29.60R
$$

SDZ017-020-022-023-036>040-048>070-030200-
SOUTHEAST SOUTH DAKOTA

CITY           SKY/WX    TMP DP  RH WIND       PRES   REMARKS
SIOUX FALLS    PTCLDY    74  52  46 S16       29.71F
HURON          PTCLDY    80  43  26 S14       29.63F
MITCHELL       CLEAR     77  48  35 S9        29.66F
YANKTON        CLEAR     75  54  46 E10       29.69S
$$

ABBREVIATIONS USED IN REMARKS
   TC - TEMPERATURE IN CELSIUS
  WCI - WIND CHILL INDEX
   HX - HEAT INDEX
  VSB - VISIBILITY



USA.gov is the U.S. government's official web portal to all federal, state and local government web resources and services.